{"data":{"norad_id":59539,"epoch":"2026-05-25T01:30:02.523744Z","epoch_age_seconds":76382,"freshness":"FRESH","line1":"1 59539U 24074F   26145.06252921  .00000437  00000+0  25419-4 0  9991","line2":"2 59539  43.0038 272.2900 0001323 282.7818  77.2886 15.27579572117690","mean_motion":15.27579572,"eccentricity":0.0001323,"inclination_deg":43.0038,"raan_deg":272.29,"arg_perigee_deg":282.7818,"mean_anomaly_deg":77.2886,"bstar":2.5419e-5,"rev_number":11769,"period_min":94.266775125479,"perigee_km":482.14264253586,"apogee_km":483.95811271598,"semimajor_km":6861.1873776259,"source":"CELESTRAK","updated_at":"2026-05-25T13:38:18.979447Z"}}